Location: Newark
(6.1167°N, 1.2167°E)
Time: 18:41:44
(UTC+00:00)

ISS - Visible Passes

Search period start: 20 October 2019 00:00
Search period end: 30 October 2019 00:00
Orbit: 411 x 421 km, 51.6° (Epoch: 20 October)

Date Brightness Start Highest point End Pass type
(mag) Time Alt. Az. Time Alt. Az. Time Alt. Az.
20 Oct -2.1 04:39:53 10° SSW 04:43:00 36° SE 04:46:08 10° ENE visible
21 Oct -0.9 03:53:19 14° SSE 03:54:30 16° SE 03:56:39 10° E visible
22 Oct -3.2 04:41:54 34° WNW 04:42:28 37° NW 04:45:36 10° NNE visible
23 Oct -0.8 03:57:06 11° NE 03:57:06 11° NE 03:57:16 10° NE visible
